[[{"header":{"parameterUnit":"m.s-1","parameterCategory":2,"la1":30.2992,"la2":30.254,"lo1":-89.0895,"lo2":-89.0443,"dy":0.0025,"dx":0.0025,"nx":19,"ny":19,"refTime":"2026-05-09T03:00:00:Z","depth":"0","parameterNumber":2,"parameterNumberName":"U-component_of_CURRENTS"},"data":[0,0,0,0.2084,0.2086,0.2185,0.2185,0.2291,0.2292,0,0,0,0,0,0,0,0,0,0,0,0.2041,0.2042,0.2083,0.2086,0.2185,0.2185,0.2291,0.2292,0,0,0,0,0,0,0,0,0,0,0,0.2041,0.2042,0.2043,0.2086,0.2185,0.2185,0.2291,0.2221,0,0,0,0,0,0,0,0,0,0,0.2127,0.208,0.2042,0.2043,0.2087,0.2185,0.2185,0.2217,0.2225,0.2242,0,0.2256,0,0.2282,0.2299,0.23,0,0,0,0.2083,0.2074,0.2115,0.2043,0.2088,0.2185,0.2139,0.2222,0.223,0.2252,0.2258,0.2263,0.2284,0.23,0.23,0.2437,0.2437,0,0,0.2077,0.2047,0.2109,0.212,0.2113,0.2136,0.2142,0.2227,0.2227,0.2259,0.2265,0.2286,0.2301,0.2301,0.2436,0.2437,0,0,0,0.2064,0.2043,0.2082,0.2115,0.2138,0.2139,0.2146,0.2223,0.224,0.2267,0.2287,0.2301,0.2302,0.2435,0.2436,0.2457,0,0,0,0.206,0.2036,0.2079,0.2061,0.2136,0.2182,0.214,0.2234,0.2245,0.2286,0.2301,0.2303,0.2434,0.2436,0.2454,0.2439,0,0,0,0.2037,0.2034,0.2048,0.2059,0.2106,0.2182,0.2203,0.2237,0.2257,0.23,0.2304,0.2434,0.2435,0.2452,0.2436,0.2574,0,0,0,0.1999,0.2012,0.2047,0.2074,0.2106,0.2186,0.2203,0.2255,0.229,0.2302,0.2434,0.2436,0.2452,0.2435,0.257,0.2523,0.2535,0,0,0.1995,0.2011,0.203,0.2065,0.2134,0.2172,0.2253,0.23,0.2325,0.2402,0.2406,0.2455,0.2436,0.2573,0.2622,0.2631,0,0,0,0.2017,0.2031,0.2058,0.2108,0.2174,0.2242,0.2301,0.2339,0.2417,0.2357,0.2484,0.2472,0.2558,0.2523,0.2531,0.2582,0.2444,0.2444,0.2444,0.1966,0.2022,0.2062,0.214,0.2195,0.2299,0.236,0.243,0.245,0.2494,0.2511,0.2652,0.2613,0.2619,0.2672,0.2551,0.2551,0.2551,0.2551,0.1963,0.1993,0.2066,0.2121,0.2213,0.2285,0.2423,0.2464,0.2605,0.2562,0.2648,0.2571,0.2629,0.2682,0.2553,0.2552,0.2552,0.2552,0.2552,0.1926,0.1951,0.1987,0.2066,0.2161,0.2276,0.2405,0.2531,0.2616,0.2684,0.274,0.2738,0.2772,0.2774,0.2774,0.2775,0.2775,0.2776,0.2776,0.1873,0.1917,0.1939,0.2021,0.2075,0.2196,0.2418,0.2522,0.2699,0.2757,0.2759,0.2823,0.2721,0.2697,0.2785,0.2783,0.2782,0.2781,0.2781,0.1872,0.1859,0.1903,0.1941,0.2037,0.2078,0.2319,0.2525,0.2706,0.2756,0.2916,0.2832,0.2837,0.2829,0.2809,0.2921,0.2921,0.2921,0.2921,0.1852,0.1853,0.1898,0.1933,0.1958,0.2041,0.2114,0.2376,0.2742,0.2934,0.3005,0.2924,0.2915,0.2921,0.2911,0.2892,0.3023,0.3023,0.3023,0.1871,0.1897,0.1917,0.1921,0.1923,0.1934,0.194,0.2199,0.2777,0.3036,0.3097,0.3093,0.2978,0.2961,0.2967,0.2949,0.2914,0,0]},{"header":{"parameterUnit":"m.s-1","parameterCategory":2,"la1":30.2992,"la2":30.254,"lo1":-89.0895,"lo2":-89.0443,"dy":0.0025,"dx":0.0025,"nx":19,"ny":19,"refTime":"2026-05-09T03:00:00:Z","depth":"0","parameterNumber":3,"parameterNumberName":"V-component_of_CURRENTS"},"data":[0,0,0,-0.0007,-0.0007,-0.0066,-0.0066,-0.0146,-0.0147,0,0,0,0,0,0,0,0,0,0,0,0.0017,0.0017,-0.0006,-0.0008,-0.0066,-0.0066,-0.0146,-0.0147,0,0,0,0,0,0,0,0,0,0,0,0.0017,0.0017,0.0017,-0.0008,-0.0066,-0.0066,-0.0146,-0.0103,0,0,0,0,0,0,0,0,0,0,-0.0047,-0.0017,0.0017,0.0017,-0.0008,-0.0066,-0.0066,-0.0101,-0.0106,-0.0118,0,-0.0119,0,-0.0132,-0.0152,-0.0152,0,0,0,-0.0017,-0.0013,-0.0031,0.0017,-0.0008,-0.0066,-0.0042,-0.0104,-0.0109,-0.0125,-0.012,-0.0123,-0.0133,-0.0152,-0.0152,-0.0135,-0.0134,0,0,-0.0014,0.0005,-0.0027,-0.0034,-0.0012,-0.004,-0.0044,-0.0107,-0.0106,-0.012,-0.0125,-0.0135,-0.0153,-0.0153,-0.0136,-0.0135,0,0,0,0.0002,0.0008,-0.0009,-0.003,-0.0039,-0.0042,-0.0046,-0.0104,-0.0109,-0.0126,-0.0136,-0.0153,-0.0154,-0.0136,-0.0135,-0.006,0,0,0,0.0003,0.0017,-0.0007,0.0003,-0.0038,-0.007,-0.0041,-0.0105,-0.0113,-0.0135,-0.0153,-0.0154,-0.0137,-0.0136,-0.0063,-0.0003,0,0,0,0.0018,0.0019,0.0015,0.0005,-0.0017,-0.007,-0.008,-0.0107,-0.0118,-0.0152,-0.0155,-0.0138,-0.0136,-0.0067,-0.001,0.0105,0,0,0,0.0034,0.0071,0.0016,0.0057,-0.0016,0.0,-0.008,-0.0083,-0.0102,-0.0153,-0.0137,-0.0135,-0.0068,-0.0014,0.0099,0.032,0.0361,0,0,0.0098,0.0079,0.0106,0.0056,0.0093,0.0007,0.0038,-0.0032,-0.0083,-0.0121,-0.0121,-0.0062,-0.001,0.0103,0.0416,0.0455,0,0,0,0.0138,0.015,0.0156,0.0157,0.0143,0.0121,0.005,0.0015,-0.0026,-0.0086,-0.0049,-0.0018,0.0051,0.0173,0.0204,0.0016,-0.0128,-0.0128,-0.0128,0.0225,0.0217,0.0253,0.0235,0.0244,0.0195,0.018,0.0118,0.0048,0.0045,0.0052,0.0204,0.0334,0.036,0.0161,0.0047,0.0048,0.0048,0.0048,0.0294,0.0306,0.0299,0.033,0.031,0.0325,0.0282,0.0233,0.0235,0.0136,0.02,0.0257,0.0399,0.0174,0.0053,0.0052,0.0052,0.0051,0.0051,0.0318,0.0325,0.0335,0.0378,0.0435,0.0428,0.0569,0.0473,0.0344,0.0376,0.0542,0.0543,0.0343,0.0421,0.0421,0.0422,0.0423,0.0423,0.0424,0.0331,0.0343,0.0421,0.0459,0.0585,0.0707,0.0762,0.0817,0.0789,0.0679,0.0681,0.0395,0.0319,0.0301,0.0436,0.0434,0.0432,0.0431,0.043,0.0407,0.0394,0.0556,0.0689,0.0977,0.1232,0.1248,0.1352,0.132,0.1322,0.0812,0.0851,0.0864,0.084,0.0835,0.1101,0.1101,0.1101,0.1101,0.0469,0.0461,0.0779,0.1097,0.1394,0.1545,0.1852,0.1811,0.1431,0.1194,0.0972,0.0878,0.0859,0.086,0.0836,0.0825,0.1082,0.1081,0.108,0.0574,0.0668,0.0978,0.1261,0.1666,0.1883,0.2095,0.207,0.1492,0.1044,0.066,0.0662,0.0472,0.0459,0.0413,0.0395,0.0361,0,0]}],[{"header":{"parameterUnit":"m.s-1","parameterCategory":2,"la1":30.2992,"la2":30.254,"lo1":-89.0895,"lo2":-89.0443,"dy":0.0025,"dx":0.0025,"nx":19,"ny":19,"refTime":"2026-05-09T03:00:00:Z","depth":"2","parameterNumber":2,"parameterNumberName":"U-component_of_CURRENTS"},"data":[0,0,0,0.1949,0.1952,0.2064,0.2064,0.2181,0.2182,0,0,0,0,0,0,0,0,0,0,0,0.1917,0.1918,0.1949,0.1952,0.2063,0.2064,0.2181,0.2182,0,0,0,0,0,0,0,0,0,0,0,0.1917,0.1918,0.1919,0.1952,0.2063,0.2064,0.2181,0.2104,0,0,0,0,0,0,0,0,0,0,0.1998,0.1969,0.1918,0.1919,0.1953,0.2063,0.2064,0.21,0.2108,0.2123,0,0.2149,0,0.2165,0.2189,0.219,0,0,0,0.1954,0.1962,0.1994,0.192,0.1954,0.2063,0.2014,0.2105,0.2114,0.2134,0.215,0.2155,0.2167,0.219,0.2191,0.2284,0.2285,0,0,0.1948,0.1935,0.1988,0.2,0.1994,0.201,0.2017,0.2111,0.2123,0.2151,0.2158,0.2169,0.2191,0.2192,0.2284,0.2284,0,0,0,0.1929,0.193,0.1961,0.1995,0.2016,0.2013,0.2021,0.2119,0.2131,0.2159,0.217,0.2191,0.2193,0.2284,0.2284,0.2402,0,0,0,0.1925,0.1919,0.1958,0.1951,0.2015,0.2072,0.2028,0.2124,0.2135,0.217,0.2192,0.2194,0.2284,0.2284,0.2399,0.2409,0,0,0,0.191,0.1917,0.1934,0.195,0.1997,0.2071,0.2088,0.2127,0.2142,0.219,0.2194,0.2283,0.2284,0.2395,0.2404,0.2547,0,0,0,0.1887,0.1898,0.1934,0.1961,0.1996,0.2066,0.2087,0.2147,0.219,0.2192,0.2284,0.2284,0.2394,0.2401,0.2542,0.2389,0.2399,0,0,0.1878,0.1897,0.1913,0.1947,0.2006,0.205,0.2133,0.2197,0.22,0.2251,0.2254,0.24,0.2404,0.2546,0.2421,0.243,0,0,0,0.1895,0.1906,0.1932,0.1982,0.2044,0.2139,0.2191,0.2239,0.2324,0.2228,0.2378,0.2375,0.2463,0.2359,0.2366,0.2287,0.2287,0.2287,0.2287,0.1858,0.1902,0.1962,0.2033,0.2084,0.2201,0.2295,0.2367,0.236,0.2417,0.2458,0.2615,0.2502,0.2507,0.2461,0.2461,0.2462,0.2462,0.2462,0.1889,0.1946,0.2014,0.2079,0.2183,0.2259,0.2411,0.246,0.2613,0.2541,0.2625,0.2466,0.2522,0.2471,0.247,0.2468,0.2467,0.2467,0.2466,0.188,0.1929,0.1974,0.209,0.2212,0.2318,0.2482,0.2601,0.2692,0.2782,0.2705,0.27,0.2717,0.2853,0.2854,0.2855,0.2855,0.2856,0.2856,0.1888,0.1944,0.1992,0.2107,0.2181,0.2317,0.254,0.2666,0.2786,0.2788,0.2787,0.2747,0.2734,0.2739,0.2867,0.2865,0.2864,0.2863,0.2862,0.1941,0.1908,0.1992,0.2051,0.2216,0.2265,0.2485,0.2653,0.2825,0.2853,0.282,0.2817,0.2771,0.276,0.2763,0.2891,0.2891,0.2891,0.2891,0.1946,0.1946,0.2038,0.2118,0.2208,0.227,0.2262,0.232,0.2527,0.2542,0.2556,0.2396,0.2403,0.2327,0.2325,0.2315,0.2328,0.2326,0.2325,0.2016,0.2033,0.2092,0.2136,0.2223,0.22,0.2027,0.188,0.205,0.23,0.2424,0.286,0.2657,0.2655,0.2558,0.2549,0.2541,0,0]},{"header":{"parameterUnit":"m.s-1","parameterCategory":2,"la1":30.2992,"la2":30.254,"lo1":-89.0895,"lo2":-89.0443,"dy":0.0025,"dx":0.0025,"nx":19,"ny":19,"refTime":"2026-05-09T03:00:00:Z","depth":"2","parameterNumber":3,"parameterNumberName":"V-component_of_CURRENTS"},"data":[0,0,0,-0.006,-0.0061,-0.0121,-0.0121,-0.0231,-0.0232,0,0,0,0,0,0,0,0,0,0,0,-0.0038,-0.0039,-0.006,-0.0061,-0.0121,-0.0121,-0.0231,-0.0232,0,0,0,0,0,0,0,0,0,0,0,-0.0038,-0.0038,-0.0039,-0.0061,-0.0121,-0.0121,-0.0231,-0.018,0,0,0,0,0,0,0,0,0,0,-0.0119,-0.0089,-0.0038,-0.0039,-0.0061,-0.0121,-0.0121,-0.0178,-0.0183,-0.0209,0,-0.0209,0,-0.0219,-0.0239,-0.0239,0,0,0,-0.0074,-0.0084,-0.0099,-0.0039,-0.0061,-0.012,-0.0097,-0.0181,-0.0187,-0.0217,-0.0211,-0.0215,-0.0221,-0.024,-0.024,-0.0267,-0.0266,0,0,-0.007,-0.0055,-0.0094,-0.0102,-0.0066,-0.0095,-0.0099,-0.0184,-0.0188,-0.0211,-0.0217,-0.0222,-0.024,-0.0241,-0.0267,-0.0267,0,0,0,-0.0052,-0.0053,-0.0066,-0.0098,-0.0104,-0.0097,-0.0101,-0.0184,-0.0188,-0.0218,-0.0224,-0.0241,-0.0242,-0.0268,-0.0267,-0.0172,0,0,0,-0.0051,-0.0041,-0.0064,-0.0056,-0.0102,-0.014,-0.0099,-0.0182,-0.0192,-0.0223,-0.0241,-0.0243,-0.0268,-0.0267,-0.0176,-0.0109,0,0,0,-0.0038,-0.004,-0.0043,-0.0055,-0.0075,-0.0139,-0.0148,-0.0184,-0.0195,-0.0239,-0.0243,-0.0269,-0.0267,-0.0179,-0.0116,-0.005,0,0,0,-0.0027,-0.0005,-0.0042,-0.0021,-0.0074,-0.0076,-0.0147,-0.0163,-0.0192,-0.0241,-0.0268,-0.0267,-0.018,-0.012,-0.0055,-0.0114,-0.0098,0,0,0.0012,-0.0,0.0014,-0.002,0.0006,-0.007,-0.0058,-0.013,-0.0186,-0.0246,-0.0247,-0.0174,-0.0117,-0.0051,-0.0047,-0.0034,0,0,0,0.0035,0.0044,0.0045,0.0048,0.0029,0.0018,-0.0058,-0.0094,-0.0139,-0.0196,-0.0178,-0.0144,-0.0106,-0.0151,-0.014,-0.0262,-0.0262,-0.0262,-0.0262,0.0097,0.0092,0.0124,0.0116,0.0118,0.007,0.0056,-0.0007,-0.0083,-0.0082,-0.007,0.0044,-0.0005,0.0003,-0.0088,-0.0088,-0.0087,-0.0087,-0.0087,0.0163,0.0183,0.0186,0.0217,0.0208,0.0212,0.0158,0.0111,0.0095,0.0013,0.0045,-0.0053,0.0021,-0.0079,-0.0081,-0.0082,-0.0082,-0.0083,-0.0083,0.0202,0.0214,0.0231,0.0287,0.0344,0.0324,0.0376,0.0312,0.0209,0.0234,0.0169,0.0166,0.0117,0.0246,0.0246,0.0247,0.0247,0.0248,0.0248,0.0233,0.0251,0.0331,0.038,0.0466,0.0535,0.0523,0.0477,0.0369,0.029,0.0288,0.0156,0.0145,0.0136,0.0257,0.0256,0.0254,0.0254,0.0253,0.028,0.0297,0.0423,0.0518,0.0695,0.0726,0.0733,0.0572,0.0528,0.0439,0.0308,0.0304,0.0273,0.026,0.0254,0.0399,0.0399,0.0399,0.0399,0.0322,0.0332,0.0536,0.0716,0.083,0.0843,0.0786,0.0676,0.0496,0.0431,0.043,0.0332,0.0324,0.029,0.0277,0.0268,0.0418,0.0418,0.0418,0.0373,0.0431,0.059,0.0749,0.0894,0.0866,0.0758,0.0724,0.053,0.0424,0.0486,0.039,0.0235,0.0227,0.016,0.0145,0.0125,0,0]}],[{"header":{"parameterUnit":"m.s-1","parameterCategory":2,"la1":30.2992,"la2":30.254,"lo1":-89.0895,"lo2":-89.0443,"dy":0.0025,"dx":0.0025,"nx":19,"ny":19,"refTime":"2026-05-09T03:00:00:Z","depth":"4","parameterNumber":2,"parameterNumberName":"U-component_of_CURRENTS"},"data":[0,0,0,0.1165,0.1168,0.1297,0.1298,0.138,0.1381,0,0,0,0,0,0,0,0,0,0,0,0.1123,0.1124,0.1165,0.1168,0.1297,0.1298,0.138,0.1381,0,0,0,0,0,0,0,0,0,0,0,0.1122,0.1123,0.1125,0.1169,0.1297,0.1298,0.138,0.1302,0,0,0,0,0,0,0,0,0,0,0.1186,0.1165,0.1123,0.1125,0.1169,0.1297,0.1298,0.1299,0.1306,0.1299,0,0.1332,0,0.1359,0.1385,0.1385,0,0,0,0.1163,0.1158,0.119,0.1125,0.1171,0.1297,0.1237,0.1304,0.1312,0.1309,0.1333,0.1337,0.136,0.1385,0.1385,0.1477,0.1478,0,0,0.1156,0.1145,0.1185,0.1196,0.1219,0.1233,0.1242,0.131,0.1325,0.1334,0.134,0.1361,0.1386,0.1386,0.1477,0.1477,0,0,0,0.1139,0.114,0.1172,0.1192,0.1223,0.1237,0.1247,0.1322,0.1333,0.1341,0.1362,0.1386,0.1387,0.1476,0.1477,0.1493,0,0,0,0.1134,0.1131,0.1169,0.1164,0.1223,0.1287,0.1257,0.1328,0.1337,0.1362,0.1386,0.1387,0.1475,0.1476,0.1491,0.1535,0,0,0,0.1114,0.1128,0.1147,0.1163,0.1221,0.1286,0.1302,0.1331,0.1349,0.1385,0.1387,0.1475,0.1476,0.1489,0.1531,0.1623,0,0,0,0.1091,0.1116,0.1148,0.1183,0.122,0.1284,0.1302,0.1367,0.1402,0.1386,0.1476,0.1477,0.1489,0.1529,0.162,0.1371,0,0,0,0.1099,0.1117,0.1134,0.1166,0.1216,0.1265,0.1318,0.1381,0.1416,0.1444,0.1448,0.1491,0.1531,0.1622,0.145,0,0,0,0,0.1121,0.1136,0.1158,0.1201,0.1253,0.1322,0.1373,0.1408,0.1484,0.1445,0.1514,0.1539,0.1596,0.1441,0.1483,0.1483,0.1483,0.1483,0.1483,0.1098,0.1129,0.1155,0.1208,0.1263,0.1358,0.1422,0.1482,0.1488,0.1543,0.1566,0.1671,0.1505,0.1564,0.1564,0.1564,0.1564,0.1564,0.1564,0.1066,0.1053,0.1138,0.1176,0.1267,0.1333,0.1472,0.1522,0.1639,0.1612,0.1665,0.1484,0.1566,0.1566,0.1566,0.1565,0.1565,0.1565,0.1565,0.0996,0.0988,0.1048,0.1125,0.1239,0.1366,0.1498,0.1617,0.1696,0.175,0.1637,0.1723,0.1709,0.1793,0.1794,0.1795,0.1795,0.1796,0.1796,0.0864,0.0921,0.0987,0.109,0.1188,0.1347,0.1562,0.1631,0.1743,0.1675,0.1793,0.175,0.1743,0.1725,0.1805,0.1803,0.1802,0.1801,0.1801,0.0694,0.0797,0.089,0.099,0.1196,0.1292,0.1516,0.1588,0.1665,0.1652,0.1637,0.1643,0.1637,0.1633,0.1611,0.166,0.1658,0.1655,0,0.0599,0.0643,0.0825,0.0976,0.1109,0.1262,0.13,0.1395,0.1496,0.1461,0.1668,0.1651,0.1653,0.1641,0.1634,0.1604,0,0,0,0.0486,0.0587,0.0687,0.0896,0.1058,0.1153,0.1301,0.1285,0.1495,0.1443,0.1584,0.1602,0.1646,0.1832,0.1838,0.1829,0.1803,0,0]},{"header":{"parameterUnit":"m.s-1","parameterCategory":2,"la1":30.2992,"la2":30.254,"lo1":-89.0895,"lo2":-89.0443,"dy":0.0025,"dx":0.0025,"nx":19,"ny":19,"refTime":"2026-05-09T03:00:00:Z","depth":"4","parameterNumber":3,"parameterNumberName":"V-component_of_CURRENTS"},"data":[0,0,0,0.0016,0.0016,-0.0029,-0.0029,-0.0123,-0.0123,0,0,0,0,0,0,0,0,0,0,0,0.0032,0.0032,0.0016,0.0016,-0.0029,-0.0029,-0.0122,-0.0123,0,0,0,0,0,0,0,0,0,0,0,0.0032,0.0032,0.0032,0.0015,-0.0029,-0.0029,-0.0122,-0.0082,0,0,0,0,0,0,0,0,0,0,-0.0035,-0.0012,0.0032,0.0032,0.0015,-0.0029,-0.0029,-0.0079,-0.0084,-0.011,0,-0.0111,0,-0.0117,-0.013,-0.013,0,0,0,0.0007,-0.0007,-0.0019,0.0032,0.0015,-0.0029,-0.0011,-0.0082,-0.0087,-0.0117,-0.0113,-0.0116,-0.0119,-0.013,-0.0131,-0.0188,-0.0188,0,0,0.001,0.0019,-0.0014,-0.0022,0.001,-0.001,-0.0012,-0.0085,-0.0089,-0.0113,-0.0118,-0.012,-0.0131,-0.0132,-0.0188,-0.0188,0,0,0,0.0023,0.0021,0.0012,-0.0018,-0.0022,-0.0011,-0.0014,-0.0086,-0.0088,-0.0119,-0.0121,-0.0132,-0.0133,-0.0188,-0.0188,-0.0091,0,0,0,0.0024,0.0029,0.0014,0.0018,-0.002,-0.005,-0.0014,-0.0083,-0.0092,-0.0121,-0.0132,-0.0134,-0.0188,-0.0188,-0.0094,-0.0045,0,0,0,0.0033,0.003,0.0027,0.0019,0.0003,-0.0048,-0.0055,-0.0085,-0.0093,-0.013,-0.0134,-0.0188,-0.0188,-0.0097,-0.005,-0.0064,0,0,0,0.004,0.0044,0.0028,0.0031,0.0004,-0.0007,-0.0055,-0.0077,-0.0104,-0.0132,-0.0188,-0.0188,-0.0097,-0.0053,-0.0066,-0.0053,0,0,0,0.0051,0.0045,0.0049,0.0033,0.0048,-0.0002,0.0007,-0.0052,-0.0112,-0.0169,-0.017,-0.0093,-0.005,-0.0065,-0.0042,0,0,0,0,0.0057,0.0068,0.0065,0.0071,0.0051,0.0056,-0.0003,-0.0032,-0.0079,-0.0126,-0.0116,-0.0093,-0.0105,-0.0105,-0.0187,-0.0187,-0.0187,-0.0187,-0.0187,0.0086,0.009,0.0124,0.0132,0.0125,0.009,0.0081,0.0028,-0.0038,-0.0047,-0.0031,0.0003,0.0007,-0.0057,-0.0056,-0.0056,-0.0056,-0.0055,-0.0055,0.0154,0.019,0.0202,0.0241,0.0236,0.0238,0.0177,0.0132,0.0081,0.0032,0.0014,-0.0023,-0.0046,-0.0048,-0.0049,-0.005,-0.0051,-0.0052,-0.0052,0.0201,0.0227,0.0258,0.0327,0.0362,0.0333,0.0321,0.0257,0.017,0.0165,0.0097,0.0047,0.0055,0.013,0.013,0.0131,0.0131,0.0131,0.0131,0.0247,0.0283,0.0335,0.041,0.0432,0.0444,0.0391,0.0337,0.025,0.0203,0.0172,0.0064,0.0058,0.0063,0.0134,0.0133,0.0133,0.0133,0.0132,0.0281,0.0304,0.0365,0.04,0.046,0.0473,0.0446,0.0361,0.0302,0.0248,0.0199,0.0194,0.0149,0.0141,0.0147,0.0245,0.0246,0.0246,0,0.0287,0.0314,0.0348,0.0373,0.0417,0.0452,0.0412,0.0359,0.0279,0.0285,0.0254,0.0199,0.0196,0.0143,0.0136,0.0144,0,0,0,0.0283,0.0294,0.0277,0.032,0.0369,0.0381,0.039,0.0363,0.0324,0.0281,0.0257,0.0254,0.0176,0.0142,0.0061,0.0054,0.0057,0,0]}]]